"read_dt","SO2 (ppb)","flags","PMT voltage (V)","lamp voltage (V)","lamp intensity (Hz)","internal temp (C)","react chamber temp (C)","sample flow (l/min)","pres (mmHg)","SO2 bkg (ppb)","SO2 coefficient"
2015-10-31 00:00:00,1917E-3,5C000400,-0724,0829,12075,025.1,045.3,0.260,748.6,01.17,0.508
2015-10-31 00:01:00,1624E-3,5C000400,-0724,0829,12217,025.2,045.3,0.261,748.6,01.17,0.508
2015-10-31 00:02:00,1702E-3,5C000400,-0724,0828,12066,025.1,045.3,0.261,748.6,01.17,0.508
2015-10-31 00:03:00,1748E-3,5C000400,-0724,0829,12158,025.1,045.3,0.260,748.6,01.17,0.508
2015-10-31 00:04:00,1714E-3,5C000400,-0724,0828,12180,025.1,045.3,0.261,748.6,01.17,0.508
2015-10-31 00:05:00,1838E-3,5C000400,-0724,0829,12061,025.1,045.4,0.261,748.6,01.17,0.508
2015-10-31 00:06:00,1841E-3,5C000400,-0724,0829,12224,025.1,045.3,0.261,748.6,01.17,0.508
2015-10-31 00:07:00,1924E-3,5C000400,-0724,0828,12281,025.2,045.3,0.261,748.6,01.17,0.508
2015-10-31 00:08:00,1866E-3,5C000400,-0724,0829,12222,025.1,045.4,0.261,748.6,01.17,0.508
2015-10-31 00:09:00,1703E-3,5C000400,-0724,0829,12349,025.1,045.3,0.261,748.5,01.17,0.508
2015-10-31 00:10:00,1788E-3,5C000400,-0724,0828,12187,025.1,045.3,0.261,748.6,01.17,0.508
2015-10-31 00:11:00,1804E-3,5C000400,-0724,0829,12183,025.1,045.3,0.261,748.6,01.17,0.508
2015-10-31 00:12:00,1897E-3,5C000400,-0724,0829,12278,025.1,045.3,0.261,748.6,01.17,0.508
2015-10-31 00:13:00,1726E-3,5C000400,-0724,0829,12248,025.1,045.3,0.261,748.6,01.17,0.508
2015-10-31 00:14:00,1927E-3,5C000400,-0724,0828,12255,025.1,045.3,0.261,748.7,01.17,0.508
2015-10-31 00:15:00,1919E-3,5C000400,-0724,0828,12336,025.1,045.3,0.261,748.6,01.17,0.508
2015-10-31 00:16:00,1934E-3,5C000400,-0724,0828,12195,025.1,045.4,0.261,748.6,01.17,0.508
2015-10-31 00:17:00,1844E-3,5C000400,-0724,0828,12186,025.1,045.3,0.261,748.6,01.17,0.508
2015-10-31 00:18:00,1864E-3,5C000400,-0724,0828,12225,025.1,045.3,0.260,748.7,01.17,0.508
2015-10-31 00:19:00,1856E-3,5C000400,-0724,0828,12318,025.1,045.3,0.261,748.7,01.17,0.508
2015-10-31 00:20:00,1830E-3,5C000400,-0724,0828,12181,025.1,045.3,0.261,748.7,01.17,0.508
2015-10-31 00:21:00,1757E-3,5C000400,-0724,0830,12197,025.1,045.3,0.261,748.7,01.17,0.508
2015-10-31 00:22:00,1901E-3,5C000400,-0724,0828,12284,025.1,045.3,0.261,748.8,01.17,0.508
2015-10-31 00:23:00,1722E-3,5C000400,-0724,0828,12277,025.1,045.3,0.261,748.7,01.17,0.508
2015-10-31 00:24:00,1721E-3,5C000400,-0724,0828,12208,025.1,045.3,0.261,748.7,01.17,0.508
2015-10-31 00:25:00,1822E-3,5C000400,-0724,0829,12206,025.1,045.3,0.261,748.6,01.17,0.508
2015-10-31 00:26:00,1821E-3,5C000400,-0724,0828,12238,025.1,045.3,0.261,748.7,01.17,0.508
2015-10-31 00:27:00,1783E-3,5C000400,-0724,0829,12135,025.1,045.3,0.261,748.7,01.17,0.508
2015-10-31 00:28:00,1864E-3,5C000400,-0724,0830,12125,025.1,045.3,0.261,748.7,01.17,0.508
2015-10-31 00:29:00,1806E-3,5C000400,-0724,0828,12173,025.1,045.3,0.261,748.8,01.17,0.508
2015-10-31 00:30:00,1772E-3,5C000400,-0724,0829,12028,025.1,045.3,0.261,748.8,01.17,0.508
2015-10-31 00:31:00,1782E-3,5C000400,-0724,0829,12310,025.1,045.4,0.261,748.7,01.17,0.508
2015-10-31 00:32:00,1927E-3,5C000400,-0724,0828,12175,025.1,045.3,0.260,748.8,01.17,0.508
2015-10-31 00:33:00,1876E-3,5C000400,-0724,0829,12085,025.1,045.4,0.261,748.9,01.17,0.508
2015-10-31 00:34:00,1896E-3,5C000400,-0724,0828,11969,025.1,045.3,0.261,748.9,01.17,0.508
2015-10-31 00:35:00,1837E-3,5C000400,-0724,0828,12173,025.1,045.3,0.261,748.9,01.17,0.508
2015-10-31 00:36:00,1735E-3,5C000400,-0724,0828,12201,025.1,045.3,0.261,748.9,01.17,0.508
2015-10-31 00:37:00,1841E-3,5C000400,-0724,0828,12296,025.1,045.3,0.261,748.9,01.17,0.508
2015-10-31 00:38:00,1948E-3,5C000400,-0724,0828,12150,025.1,045.3,0.261,748.9,01.17,0.508
2015-10-31 00:39:00,1726E-3,5C000400,-0724,0828,12121,025.1,045.3,0.261,748.9,01.17,0.508
2015-10-31 00:40:00,1805E-3,5C000400,-0724,0829,12268,025.1,045.3,0.261,748.9,01.17,0.508
2015-10-31 00:41:00,1794E-3,5C000400,-0724,0829,12094,025.1,045.3,0.261,748.9,01.17,0.508
2015-10-31 00:42:00,1719E-3,5C000400,-0724,0828,12284,025.1,045.3,0.261,748.9,01.17,0.508
2015-10-31 00:43:00,1837E-3,5C000400,-0724,0829,12097,025.1,045.3,0.261,748.9,01.17,0.508
2015-10-31 00:44:00,1970E-3,5C000400,-0724,0829,12320,025.1,045.4,0.260,748.9,01.17,0.508
2015-10-31 00:45:00,1891E-3,5C000400,-0724,0829,12146,025.1,045.4,0.261,748.9,01.17,0.508
2015-10-31 00:46:00,1903E-3,5C000400,-0724,0828,12249,025.1,045.3,0.261,748.9,01.17,0.508
2015-10-31 00:47:00,1769E-3,5C000400,-0724,0829,12365,025.0,045.3,0.261,748.9,01.17,0.508
2015-10-31 00:48:00,1844E-3,5C000400,-0724,0828,12126,025.1,045.3,0.261,748.9,01.17,0.508
2015-10-31 00:49:00,1909E-3,5C000400,-0724,0829,12346,025.1,045.4,0.261,748.9,01.17,0.508
2015-10-31 00:50:00,1764E-3,5C000400,-0724,0828,12236,025.1,045.3,0.261,748.9,01.17,0.508
2015-10-31 00:51:00,1850E-3,5C000400,-0724,0828,11959,025.0,045.4,0.261,748.9,01.17,0.508
2015-10-31 00:52:00,1945E-3,5C000400,-0724,0828,12230,025.1,045.4,0.261,748.9,01.17,0.508
2015-10-31 00:53:00,1735E-3,5C000400,-0724,0829,12166,025.1,045.3,0.261,748.9,01.17,0.508
2015-10-31 00:54:00,1856E-3,5C000400,-0724,0828,12237,025.1,045.3,0.261,748.9,01.17,0.508
2015-10-31 00:55:00,1805E-3,5C000400,-0724,0829,12280,025.0,045.3,0.261,748.9,01.17,0.508
2015-10-31 00:56:00,1805E-3,5C000400,-0724,0828,12181,025.0,045.3,0.260,748.9,01.17,0.508
2015-10-31 00:57:00,1816E-3,5C000400,-0724,0828,12126,025.0,045.3,0.261,748.9,01.17,0.508
2015-10-31 00:58:00,1906E-3,5C000400,-0724,0829,12235,025.0,045.3,0.261,748.9,01.17,0.508
2015-10-31 00:59:00,1915E-3,5C000400,-0724,0828,12362,025.0,045.3,0.261,748.9,01.17,0.508
2015-10-31 01:00:00,1633E-3,5C000400,-0724,0828,12110,025.0,045.3,0.261,748.9,01.17,0.508
2015-10-31 01:01:00,1739E-3,5C000400,-0724,0829,12145,025.0,045.3,0.261,748.9,01.17,0.508
2015-10-31 01:02:00,1803E-3,5C000400,-0724,0829,12175,024.9,045.3,0.261,748.9,01.17,0.508
2015-10-31 01:03:00,1910E-3,5C000400,-0724,0829,12285,025.0,045.3,0.261,748.8,01.17,0.508
2015-10-31 01:04:00,1853E-3,5C000400,-0724,0829,12279,025.0,045.3,0.261,748.9,01.17,0.508
2015-10-31 01:05:00,1759E-3,5C000400,-0724,0828,12224,025.0,045.3,0.261,748.9,01.17,0.508
2015-10-31 01:06:00,1947E-3,5C000400,-0724,0828,12082,025.0,045.3,0.261,748.9,01.17,0.508
2015-10-31 01:07:00,1882E-3,5C000400,-0724,0829,12186,025.0,045.3,0.261,748.9,01.17,0.508
2015-10-31 01:08:00,1874E-3,5C000400,-0724,0829,12284,025.0,045.4,0.261,748.9,01.17,0.508
2015-10-31 01:09:00,1814E-3,5C000400,-0724,0829,12295,025.0,045.4,0.261,748.9,01.17,0.508
2015-10-31 01:10:00,1933E-3,5C000400,-0724,0829,12186,025.0,045.3,0.261,748.9,01.17,0.508
2015-10-31 01:11:00,1835E-3,5C000400,-0724,0828,12202,025.0,045.3,0.261,748.9,01.17,0.508
2015-10-31 01:12:00,1865E-3,5C000400,-0724,0828,12174,025.0,045.3,0.261,748.9,01.17,0.508
2015-10-31 01:13:00,1928E-3,5C000400,-0724,0829,12203,025.0,045.3,0.261,748.8,01.17,0.508
2015-10-31 01:14:00,1952E-3,5C000400,-0724,0829,12352,025.1,045.3,0.261,748.8,01.17,0.508
2015-10-31 01:15:00,1999E-3,5C000400,-0724,0829,12232,025.1,045.3,0.261,748.9,01.17,0.508
2015-10-31 01:16:00,2016E-3,5C000400,-0724,0828,12177,025.1,045.3,0.261,748.9,01.17,0.508
2015-10-31 01:17:00,1838E-3,5C000400,-0724,0828,12134,025.1,045.3,0.261,748.9,01.17,0.508
2015-10-31 01:18:00,1833E-3,5C000400,-0724,0829,12240,025.1,045.3,0.261,748.9,01.17,0.508
2015-10-31 01:19:00,1909E-3,5C000400,-0724,0828,12271,025.1,045.4,0.261,748.9,01.17,0.508
2015-10-31 01:20:00,1830E-3,5C000400,-0724,0829,12205,025.1,045.3,0.261,748.9,01.17,0.508
2015-10-31 01:21:00,1734E-3,5C000400,-0724,0828,12220,025.1,045.3,0.261,748.9,01.17,0.508
2015-10-31 01:22:00,1997E-3,5C000400,-0724,0829,12079,025.1,045.3,0.260,748.9,01.17,0.508
2015-10-31 01:23:00,1770E-3,5C000400,-0724,0828,12347,025.2,045.4,0.261,748.9,01.17,0.508
2015-10-31 01:24:00,1996E-3,5C000400,-0724,0829,12264,025.2,045.3,0.261,748.8,01.17,0.508
2015-10-31 01:25:00,1888E-3,5C000400,-0724,0828,12275,025.2,045.4,0.261,748.8,01.17,0.508
2015-10-31 01:26:00,1856E-3,5C000400,-0724,0829,12185,025.2,045.4,0.261,748.7,01.17,0.508
2015-10-31 01:27:00,1739E-3,5C000400,-0724,0828,12207,025.2,045.3,0.261,748.8,01.17,0.508
2015-10-31 01:28:00,1830E-3,5C000400,-0724,0829,12175,025.3,045.3,0.260,748.8,01.17,0.508
2015-10-31 01:29:00,1616E-3,5C000400,-0724,0829,12029,025.3,045.3,0.261,748.7,01.17,0.508
2015-10-31 01:30:00,1889E-3,5C000400,-0724,0829,12156,025.3,045.3,0.261,748.9,01.17,0.508
2015-10-31 01:31:00,1870E-3,5C000400,-0724,0828,12303,025.3,045.3,0.261,748.9,01.17,0.508
2015-10-31 01:32:00,1739E-3,5C000400,-0724,0828,12197,025.3,045.3,0.261,748.9,01.17,0.508
2015-10-31 01:33:00,1876E-3,5C000400,-0724,0828,12237,025.3,045.3,0.261,748.9,01.17,0.508
2015-10-31 01:34:00,1753E-3,5C000400,-0724,0829,12112,025.4,045.3,0.261,748.9,01.17,0.508
2015-10-31 01:35:00,1767E-3,5C000400,-0724,0829,12226,025.4,045.3,0.260,748.9,01.17,0.508
2015-10-31 01:36:00,1890E-3,5C000400,-0724,0829,12266,025.4,045.3,0.261,748.9,01.17,0.508
2015-10-31 01:37:00,1771E-3,5C000400,-0724,0829,12127,025.4,045.3,0.261,749.0,01.17,0.508
2015-10-31 01:38:00,1825E-3,5C000400,-0724,0829,12255,025.4,045.3,0.260,749.0,01.17,0.508
2015-10-31 01:39:00,1801E-3,5C000400,-0724,0829,12218,025.5,045.3,0.260,749.0,01.17,0.508
2015-10-31 01:40:00,1863E-3,5C000400,-0724,0828,12140,025.4,045.4,0.261,749.0,01.17,0.508
2015-10-31 01:41:00,1777E-3,5C000400,-0724,0829,12175,025.5,045.3,0.260,749.0,01.17,0.508
2015-10-31 01:42:00,1806E-3,5C000400,-0724,0829,12073,025.5,045.3,0.260,749.1,01.17,0.508
2015-10-31 01:43:00,1788E-3,5C000400,-0724,0829,12210,025.5,045.3,0.261,749.1,01.17,0.508
2015-10-31 01:44:00,1926E-3,5C000400,-0724,0829,12147,025.6,045.4,0.260,749.1,01.17,0.508
2015-10-31 01:45:00,1765E-3,5C000400,-0724,0828,12330,025.5,045.4,0.260,749.0,01.17,0.508
2015-10-31 01:46:00,1783E-3,5C000400,-0724,0829,12181,025.6,045.4,0.260,749.1,01.17,0.508
2015-10-31 01:47:00,1920E-3,5C000400,-0724,0829,12208,025.6,045.3,0.260,749.1,01.17,0.508
2015-10-31 01:48:00,1954E-3,5C000400,-0724,0828,12291,025.6,045.4,0.260,749.1,01.17,0.508
2015-10-31 01:49:00,1834E-3,5C000400,-0724,0828,12076,025.6,045.4,0.260,749.1,01.17,0.508
2015-10-31 01:50:00,1677E-3,5C000400,-0724,0828,12136,025.6,045.3,0.260,749.1,01.17,0.508
2015-10-31 01:51:00,1619E-3,5C000400,-0724,0829,12174,025.7,045.3,0.260,749.1,01.17,0.508
2015-10-31 01:52:00,1905E-3,5C000400,-0724,0828,12225,025.7,045.3,0.260,749.1,01.17,0.508
2015-10-31 01:53:00,1924E-3,5C000400,-0724,0828,12169,025.7,045.3,0.260,749.0,01.17,0.508
2015-10-31 01:54:00,1779E-3,5C000400,-0724,0829,12231,025.7,045.3,0.260,749.0,01.17,0.508
2015-10-31 01:55:00,1780E-3,5C000400,-0724,0829,12175,025.7,045.4,0.260,748.9,01.17,0.508
2015-10-31 01:56:00,1732E-3,5C000400,-0724,0828,12290,025.7,045.4,0.260,748.9,01.17,0.508
2015-10-31 01:57:00,1842E-3,5C000400,-0724,0829,12327,025.8,045.4,0.260,748.9,01.17,0.508
2015-10-31 01:58:00,1839E-3,5C000400,-0724,0828,12120,025.8,045.4,0.260,748.9,01.17,0.508
2015-10-31 01:59:00,1898E-3,5C000400,-0724,0829,12157,025.8,045.4,0.260,748.9,01.17,0.508
2015-10-31 02:00:00,1799E-3,5C000400,-0724,0829,12377,025.9,045.4,0.259,748.9,01.17,0.508
2015-10-31 02:01:00,1912E-3,5C000400,-0724,0828,12206,025.9,045.4,0.260,748.8,01.17,0.508
2015-10-31 02:02:00,1943E-3,5C000400,-0724,0828,12216,025.9,045.4,0.260,748.8,01.17,0.508
2015-10-31 02:03:00,1820E-3,5C000400,-0724,0829,12163,025.9,045.4,0.259,748.8,01.17,0.508
2015-10-31 02:04:00,1869E-3,5C000400,-0724,0829,12257,025.9,045.4,0.260,748.8,01.17,0.508
2015-10-31 02:05:00,1778E-3,5C000400,-0724,0828,12216,025.9,045.4,0.260,748.8,01.17,0.508
2015-10-31 02:06:00,1752E-3,5C000400,-0724,0829,12142,025.9,045.4,0.260,748.8,01.17,0.508
2015-10-31 02:07:00,1884E-3,5C000400,-0724,0828,12165,026.0,045.4,0.259,748.8,01.17,0.508
2015-10-31 02:08:00,1747E-3,5C000400,-0724,0828,12168,026.0,045.4,0.260,748.9,01.17,0.508
2015-10-31 02:09:00,1733E-3,5C000400,-0724,0829,12301,026.0,045.4,0.260,748.9,01.17,0.508
2015-10-31 02:10:00,1790E-3,5C000400,-0724,0829,12136,026.0,045.4,0.259,748.9,01.17,0.508
2015-10-31 02:11:00,1868E-3,5C000400,-0724,0829,12239,026.0,045.4,0.260,748.9,01.17,0.508
2015-10-31 02:12:00,1874E-3,5C000400,-0724,0829,12106,026.1,045.4,0.260,748.9,01.17,0.508
2015-10-31 02:13:00,1800E-3,5C000400,-0724,0829,12050,026.1,045.4,0.259,748.9,01.17,0.508
2015-10-31 02:14:00,1847E-3,5C000400,-0724,0830,12291,026.1,045.4,0.259,748.9,01.17,0.508
2015-10-31 02:15:00,1987E-3,5C000400,-0724,0829,12153,026.1,045.4,0.260,748.9,01.17,0.508
2015-10-31 02:16:00,1838E-3,5C000400,-0724,0829,12242,026.1,045.4,0.259,748.9,01.17,0.508
2015-10-31 02:17:00,1839E-3,5C000400,-0724,0828,12221,026.2,045.4,0.259,748.9,01.17,0.508
2015-10-31 02:18:00,1806E-3,5C000400,-0724,0828,12326,026.2,045.3,0.260,748.9,01.17,0.508
2015-10-31 02:19:00,1919E-3,5C000400,-0724,0829,12306,026.2,045.3,0.259,748.9,01.17,0.508
2015-10-31 02:20:00,1827E-3,5C000400,-0724,0829,12206,026.2,045.4,0.259,748.9,01.17,0.508
2015-10-31 02:21:00,1807E-3,5C000400,-0724,0829,12268,026.2,045.4,0.259,748.9,01.17,0.508
2015-10-31 02:22:00,1853E-3,5C000400,-0724,0828,12246,026.2,045.4,0.259,748.9,01.17,0.508
2015-10-31 02:23:00,1826E-3,5C000400,-0724,0829,12212,026.3,045.4,0.259,748.9,01.17,0.508
2015-10-31 02:24:00,1761E-3,5C000400,-0724,0829,12244,026.3,045.4,0.259,748.8,01.17,0.508
2015-10-31 02:25:00,1850E-3,5C000400,-0724,0829,12293,026.3,045.4,0.259,748.8,01.17,0.508
2015-10-31 02:26:00,1899E-3,5C000400,-0724,0829,12155,026.3,045.4,0.259,748.8,01.17,0.508
2015-10-31 02:27:00,1874E-3,5C000400,-0724,0829,12352,026.3,045.4,0.259,748.7,01.17,0.508
2015-10-31 02:28:00,1814E-3,5C000400,-0724,0829,12310,026.3,045.4,0.259,748.9,01.17,0.508
2015-10-31 02:29:00,1786E-3,5C000400,-0724,0829,12211,026.4,045.4,0.259,748.9,01.17,0.508
2015-10-31 02:30:00,1739E-3,5C000400,-0724,0830,12318,026.4,045.4,0.259,748.9,01.17,0.508
2015-10-31 02:31:00,1840E-3,5C000400,-0724,0828,12291,026.4,045.4,0.259,748.9,01.17,0.508
2015-10-31 02:32:00,1789E-3,5C000400,-0724,0829,12221,026.4,045.4,0.259,748.8,01.17,0.508
2015-10-31 02:33:00,1766E-3,5C000400,-0724,0829,12331,026.4,045.4,0.259,748.8,01.17,0.508
2015-10-31 02:34:00,1829E-3,5C000400,-0724,0829,12236,026.4,045.4,0.259,748.8,01.17,0.508
2015-10-31 02:35:00,1750E-3,5C000400,-0724,0829,12129,026.4,045.4,0.259,748.8,01.17,0.508
2015-10-31 02:36:00,1698E-3,5C000400,-0724,0829,12179,026.5,045.4,0.259,748.8,01.17,0.508
2015-10-31 02:37:00,1893E-3,5C000400,-0724,0830,12276,026.5,045.4,0.259,748.9,01.17,0.508
2015-10-31 02:38:00,1765E-3,5C000400,-0724,0829,12359,026.5,045.4,0.259,748.9,01.17,0.508
2015-10-31 02:39:00,1854E-3,5C000400,-0724,0829,12274,026.5,045.4,0.258,748.9,01.17,0.508
2015-10-31 02:40:00,1728E-3,5C000400,-0724,0829,12185,026.5,045.4,0.259,748.9,01.17,0.508
2015-10-31 02:41:00,1810E-3,5C000400,-0724,0829,12214,026.5,045.4,0.259,748.9,01.17,0.508
2015-10-31 02:42:00,1857E-3,5C000400,-0724,0829,12276,026.6,045.4,0.258,748.9,01.17,0.508
2015-10-31 02:43:00,1785E-3,5C000400,-0724,0829,12187,026.6,045.4,0.259,748.9,01.17,0.508
2015-10-31 02:44:00,1934E-3,5C000400,-0724,0829,12214,026.6,045.4,0.259,748.9,01.17,0.508
2015-10-31 02:45:00,1797E-3,5C000400,-0724,0829,12136,026.6,045.4,0.258,748.9,01.17,0.508
2015-10-31 02:46:00,1798E-3,5C000400,-0724,0829,12194,026.6,045.4,0.258,748.9,01.17,0.508
2015-10-31 02:47:00,1840E-3,5C000400,-0724,0829,12151,026.7,045.4,0.259,749.0,01.17,0.508
2015-10-31 02:48:00,1860E-3,5C000400,-0724,0829,12137,026.7,045.4,0.258,749.0,01.17,0.508
2015-10-31 02:49:00,1849E-3,5C000400,-0724,0828,11907,026.7,045.4,0.258,749.1,01.17,0.508
2015-10-31 02:50:00,1845E-3,5C000400,-0724,0829,12191,026.7,045.4,0.259,749.1,01.17,0.508
2015-10-31 02:51:00,1783E-3,5C000400,-0724,0829,12230,026.7,045.4,0.258,749.1,01.17,0.508
2015-10-31 02:52:00,1761E-3,5C000400,-0724,0829,12315,026.7,045.4,0.258,749.1,01.17,0.508
2015-10-31 02:53:00,1843E-3,5C000400,-0724,0829,12322,026.7,045.4,0.258,749.1,01.17,0.508
2015-10-31 02:54:00,1939E-3,5C000400,-0724,0830,12371,026.7,045.4,0.258,749.1,01.17,0.508
2015-10-31 02:55:00,1750E-3,5C000400,-0724,0829,12168,026.8,045.4,0.258,749.1,01.17,0.508
2015-10-31 02:56:00,1824E-3,5C000400,-0724,0829,12164,026.8,045.4,0.258,749.1,01.17,0.508
2015-10-31 02:57:00,1711E-3,5C000400,-0724,0829,12221,026.8,045.4,0.258,749.1,01.17,0.508
2015-10-31 02:58:00,1834E-3,5C000400,-0724,0830,12182,026.8,045.4,0.258,749.1,01.17,0.508
2015-10-31 02:59:00,1828E-3,5C000400,-0724,0829,12275,026.8,045.4,0.258,749.1,01.17,0.508
2015-10-31 03:00:00,1791E-3,5C000400,-0724,0829,12133,026.9,045.4,0.258,749.1,01.17,0.508
2015-10-31 03:01:00,1880E-3,5C000400,-0724,0828,12233,026.9,045.4,0.258,749.1,01.17,0.508
2015-10-31 03:02:00,1845E-3,5C000400,-0724,0829,12054,026.9,045.4,0.258,749.0,01.17,0.508
2015-10-31 03:03:00,1916E-3,5C000400,-0724,0829,12170,026.9,045.4,0.258,749.0,01.17,0.508
2015-10-31 03:04:00,1795E-3,5C000400,-0724,0829,12286,026.9,045.4,0.258,749.0,01.17,0.508
2015-10-31 03:05:00,1883E-3,5C000400,-0724,0829,12251,026.9,045.4,0.258,749.1,01.17,0.508
2015-10-31 03:06:00,1714E-3,5C000400,-0724,0829,12189,026.9,045.4,0.258,749.0,01.17,0.508
2015-10-31 03:07:00,1782E-3,5C000400,-0724,0829,12163,027.0,045.4,0.258,749.0,01.17,0.508
2015-10-31 03:08:00,1792E-3,5C000400,-0724,0829,12202,027.0,045.4,0.258,749.0,01.17,0.508
2015-10-31 03:09:00,1862E-3,5C000400,-0724,0829,12336,027.0,045.4,0.258,749.0,01.17,0.508
2015-10-31 03:10:00,1866E-3,5C000400,-0724,0830,12263,027.0,045.4,0.258,749.0,01.17,0.508
2015-10-31 03:11:00,1829E-3,5C000400,-0724,0829,12137,027.0,045.4,0.258,749.1,01.17,0.508
2015-10-31 03:12:00,1812E-3,5C000400,-0724,0828,12211,027.0,045.4,0.258,748.9,01.17,0.508
2015-10-31 03:13:00,1821E-3,5C000400,-0724,0829,12174,027.1,045.4,0.258,749.0,01.17,0.508
2015-10-31 03:14:00,1928E-3,5C000400,-0724,0829,12177,027.1,045.4,0.258,749.0,01.17,0.508
2015-10-31 03:15:00,1928E-3,5C000400,-0724,0829,12053,027.1,045.4,0.258,749.0,01.17,0.508
2015-10-31 03:16:00,1776E-3,5C000400,-0724,0829,12168,027.1,045.4,0.258,748.9,01.17,0.508
2015-10-31 03:17:00,1797E-3,5C000400,-0724,0829,12245,027.1,045.4,0.258,748.9,01.17,0.508
2015-10-31 03:18:00,1820E-3,5C000400,-0724,0829,12257,027.1,045.4,0.258,748.9,01.17,0.508
2015-10-31 03:19:00,1843E-3,5C000400,-0724,0829,12176,027.2,045.4,0.258,748.9,01.17,0.508
2015-10-31 03:20:00,1892E-3,5C000400,-0724,0829,12129,027.2,045.4,0.257,748.9,01.17,0.508
2015-10-31 03:21:00,1799E-3,5C000400,-0724,0828,12289,027.2,045.4,0.258,748.9,01.17,0.508
2015-10-31 03:22:00,1851E-3,5C000400,-0724,0829,12120,027.2,045.4,0.258,748.9,01.17,0.508
2015-10-31 03:23:00,1885E-3,5C000400,-0724,0829,12144,027.2,045.4,0.257,749.0,01.17,0.508
2015-10-31 03:24:00,1744E-3,5C000400,-0724,0830,12198,027.2,045.4,0.258,748.9,01.17,0.508
2015-10-31 03:25:00,1749E-3,5C000400,-0724,0830,12099,027.2,045.4,0.257,748.9,01.17,0.508
2015-10-31 03:26:00,1740E-3,5C000400,-0724,0829,12379,027.3,045.4,0.258,748.9,01.17,0.508
2015-10-31 03:27:00,1925E-3,5C000400,-0724,0829,12151,027.2,045.4,0.258,748.9,01.17,0.508
2015-10-31 03:28:00,1692E-3,5C000400,-0724,0830,12215,027.3,045.4,0.257,748.9,01.17,0.508
2015-10-31 03:29:00,1889E-3,5C000400,-0724,0829,12250,027.3,045.4,0.257,749.0,01.17,0.508
2015-10-31 03:30:00,1886E-3,5C000400,-0724,0829,12156,027.3,045.4,0.257,749.0,01.17,0.508
2015-10-31 03:31:00,1894E-3,5C000400,-0724,0829,12262,027.3,045.4,0.257,748.9,01.17,0.508
2015-10-31 03:32:00,1772E-3,5C000400,-0724,0828,12057,027.3,045.4,0.257,748.9,01.17,0.508
2015-10-31 03:33:00,1856E-3,5C000400,-0724,0830,12168,027.3,045.4,0.257,749.0,01.17,0.508
2015-10-31 03:34:00,1938E-3,5C000400,-0724,0829,12178,027.4,045.4,0.257,748.9,01.17,0.508
2015-10-31 03:35:00,1836E-3,5C000400,-0724,0829,12239,027.4,045.4,0.257,748.9,01.17,0.508
2015-10-31 03:36:00,1863E-3,5C000400,-0724,0829,12124,027.4,045.4,0.257,748.9,01.17,0.508
2015-10-31 03:37:00,1731E-3,5C000400,-0724,0829,12247,027.5,045.4,0.257,748.9,01.17,0.508
2015-10-31 03:38:00,1834E-3,5C000400,-0724,0829,12095,027.4,045.4,0.257,749.0,01.17,0.508
2015-10-31 03:39:00,1803E-3,5C000400,-0724,0829,12199,027.5,045.4,0.257,748.9,01.17,0.508
2015-10-31 03:40:00,1841E-3,5C000400,-0724,0828,12203,027.5,045.4,0.257,749.0,01.17,0.508
2015-10-31 03:41:00,1931E-3,5C000400,-0724,0829,12182,027.5,045.4,0.257,748.9,01.17,0.508
2015-10-31 03:42:00,1784E-3,5C000400,-0724,0828,12178,027.5,045.4,0.257,748.9,01.17,0.508
2015-10-31 03:43:00,1800E-3,5C000400,-0724,0829,12095,027.5,045.4,0.257,748.9,01.17,0.508
2015-10-31 03:44:00,1881E-3,5C000400,-0724,0829,12242,027.5,045.4,0.257,748.9,01.17,0.508
2015-10-31 03:45:00,1712E-3,5C000400,-0724,0829,12212,027.5,045.4,0.257,748.9,01.17,0.508
2015-10-31 03:46:00,1753E-3,5C000400,-0724,0829,12134,027.5,045.4,0.257,749.0,01.17,0.508
2015-10-31 03:47:00,1694E-3,5C000400,-0724,0829,12098,027.5,045.4,0.257,749.0,01.17,0.508
2015-10-31 03:48:00,1810E-3,5C000400,-0724,0829,12180,027.6,045.4,0.257,748.9,01.17,0.508
2015-10-31 03:49:00,1731E-3,5C000400,-0724,0830,12172,027.6,045.4,0.257,748.9,01.17,0.508
2015-10-31 03:50:00,1820E-3,5C000400,-0724,0829,12247,027.6,045.4,0.257,748.9,01.17,0.508
2015-10-31 03:51:00,1878E-3,5C000400,-0724,0829,12167,027.6,045.4,0.257,748.9,01.17,0.508
2015-10-31 03:52:00,1829E-3,5C000400,-0724,0830,12186,027.6,045.4,0.257,748.9,01.17,0.508
2015-10-31 03:53:00,1803E-3,5C000400,-0724,0829,12161,027.6,045.4,0.257,748.9,01.17,0.508
2015-10-31 03:54:00,1812E-3,5C000400,-0724,0829,12216,027.6,045.4,0.257,748.9,01.17,0.508
2015-10-31 03:55:00,1765E-3,5C000400,-0724,0829,12089,027.6,045.4,0.257,748.9,01.17,0.508
2015-10-31 03:56:00,1944E-3,5C000400,-0724,0830,12147,027.7,045.4,0.257,748.9,01.17,0.508
2015-10-31 03:57:00,1795E-3,5C000400,-0724,0829,12151,027.7,045.4,0.257,748.9,01.17,0.508
2015-10-31 03:58:00,1816E-3,5C000400,-0724,0830,12302,027.7,045.4,0.257,748.9,01.17,0.508
2015-10-31 03:59:00,1726E-3,5C000400,-0724,0830,12005,027.7,045.4,0.257,748.9,01.17,0.508
2015-10-31 04:00:00,1819E-3,5C000400,-0724,0829,12049,027.7,045.4,0.257,748.9,01.17,0.508
2015-10-31 04:01:00,1860E-3,5C000400,-0724,0829,12239,027.7,045.4,0.256,748.8,01.17,0.508
2015-10-31 04:02:00,1848E-3,5C000400,-0724,0829,12204,027.8,045.4,0.257,748.9,01.17,0.508
2015-10-31 04:03:00,1911E-3,5C000400,-0724,0829,12251,027.8,045.4,0.256,748.9,01.17,0.508
2015-10-31 04:04:00,1871E-3,5C000400,-0724,0830,12226,027.8,045.4,0.257,748.8,01.17,0.508
2015-10-31 04:05:00,1658E-3,5C000400,-0724,0830,12273,027.8,045.4,0.256,748.8,01.17,0.508
2015-10-31 04:06:00,1905E-3,5C000400,-0724,0829,12209,027.8,045.4,0.257,748.8,01.17,0.508
2015-10-31 04:07:00,1753E-3,5C000400,-0724,0829,12091,027.8,045.4,0.256,748.8,01.17,0.508
2015-10-31 04:08:00,1834E-3,5C000400,-0724,0830,12243,027.8,045.4,0.257,748.8,01.17,0.508
2015-10-31 04:09:00,1845E-3,5C000400,-0724,0829,12224,027.8,045.4,0.256,748.8,01.17,0.508
2015-10-31 04:10:00,1997E-3,5C000400,-0724,0829,12158,027.8,045.4,0.257,748.9,01.17,0.508
2015-10-31 04:11:00,1793E-3,5C000400,-0724,0829,12229,027.9,045.4,0.256,748.8,01.17,0.508
2015-10-31 04:12:00,1949E-3,5C000400,-0724,0829,12135,027.9,045.4,0.257,748.9,01.17,0.508
2015-10-31 04:13:00,1857E-3,5C000400,-0724,0830,12345,027.9,045.4,0.256,748.9,01.17,0.508
2015-10-31 04:14:00,1742E-3,5C000400,-0724,0829,12207,027.9,045.4,0.256,748.9,01.17,0.508
2015-10-31 04:15:00,1889E-3,5C000400,-0724,0829,12054,027.9,045.4,0.256,748.8,01.17,0.508
2015-10-31 04:16:00,1808E-3,5C000400,-0724,0829,12212,027.9,045.4,0.256,748.9,01.17,0.508
2015-10-31 04:17:00,1861E-3,5C000400,-0724,0829,12102,028.0,045.4,0.256,748.9,01.17,0.508
2015-10-31 04:18:00,1940E-3,5C000400,-0724,0830,12081,028.0,045.4,0.256,748.9,01.17,0.508
2015-10-31 04:19:00,1810E-3,5C000400,-0724,0828,12194,028.0,045.4,0.256,748.9,01.17,0.508
2015-10-31 04:20:00,1841E-3,5C000400,-0724,0830,12252,028.0,045.4,0.256,748.9,01.17,0.508